DF5HRN-13 Weather Reports


time (UTC)temp
F
wind
direction
speed
knots
gust
knots
rain 1hr
in
rain 24hr
in
rain mn
in
humidity
%
barometer
mb
20260507070009 49 158 0.0 10.4 0.00 0.00 0.00 44 1022.0
20260507064505 48 203 0.9 10.4 0.00 0.00 0.00 44 1022.0
20260507063005 48 180 2.6 10.4 0.00 0.00 0.00 44 1022.0
20260507061505 48 158 0.9 10.4 0.00 0.00 0.00 44 1021.0
20260507060005 48 158 0.0 10.4 0.00 0.00 0.00 44 1021.0
20260507054505 48 158 0.9 10.4 0.00 0.00 0.00 44 1021.0
20260507053005 48 203 0.0 10.4 0.00 0.00 0.00 45 1021.0
20260507051505 48 248 1.7 10.4 0.00 0.00 0.00 45 1021.0
20260507050005 48 158 0.0 10.4 0.00 0.00 0.00 45 1021.0
20260507044505 48 180 0.0 10.4 0.00 0.00 0.00 45 1020.0
20260507043005 48 203 0.0 10.4 0.00 0.00 0.00 45 1020.0
20260507041505 48 158 3.5 10.4 0.00 0.00 0.00 45 1020.0
20260507040005 49 225 0.0 10.4 0.00 0.00 0.00 45 1020.0
20260507034505 49 225 0.0 10.4 0.00 0.00 0.00 45 1020.0
20260507033005 49 180 1.7 10.4 0.00 0.00 0.00 45 1020.0
20260507031505 49 225 0.0 10.4 0.00 0.00 0.00 45 1020.0
20260507030005 49 180 0.9 10.4 0.00 0.00 0.00 45 1020.0
20260507024505 49 203 0.0 10.4 0.00 0.00 0.00 45 1020.0
20260507023005 50 203 0.9 10.4 0.00 0.00 0.00 45 1020.0
20260507021505 50 203 1.7 10.4 0.00 0.00 0.00 45 1020.0
20260507020005 50 180 0.0 10.4 0.00 0.00 0.00 45 1020.0
20260507014505 50 180 0.9 10.4 0.00 0.00 0.00 46 1019.0
20260507013005 50 248 0.9 10.4 0.00 0.00 0.00 46 1019.0
20260507011505 51 203 2.6 10.4 0.00 0.00 0.00 46 1019.0
20260507010005 51 248 1.7 10.4 0.00 0.00 0.00 46 1019.0
20260507004505 51 225 2.6 10.4 0.00 0.00 0.00 46 1019.0
20260507003005 52 203 0.9 10.4 0.00 0.00 0.00 47 1019.0
20260507001505 52 203 0.9 10.4 0.00 0.00 0.00 47 1019.0
20260507000005 52 225 2.6 10.4 0.00 0.00 0.00 47 1019.0
20260506234505 52 225 1.7 10.4 0.00 0.00 0.00 47 1019.0
20260506233005 52 270 0.9 10.4 0.00 0.00 0.00 47 1019.0
20260506231505 52 203 0.0 10.4 0.00 0.00 0.00 47 1019.0
20260506230005 53 180 0.0 10.4 0.00 0.00 0.00 47 1019.0
20260506224505 53 225 0.9 10.4 0.00 0.00 0.00 47 1019.0
20260506223005 53 180 0.0 10.4 0.00 0.00 0.00 47 1019.0
20260506221505 53 225 0.9 10.4 0.00 0.00 0.00 46 1019.0
20260506220005 53 225 1.7 10.4 0.00 0.00 0.00 46 1018.0
20260506204505 54 203 0.0 10.4 0.00 0.00 0.00 46 1018.0
20260506203005 54 203 0.0 10.4 0.00 0.00 0.00 46 1018.0
20260506201505 54 203 0.0 10.4 0.00 0.00 0.00 45 1017.0
20260506200005 54 158 0.0 10.4 0.00 0.00 0.00 45 1017.0
20260506194505 55 248 0.9 10.4 0.00 0.00 0.00 45 1016.0
20260506193005 55 225 2.6 10.4 0.00 0.00 0.00 45 1016.0
20260506191505 54 293 0.0 10.4 0.00 0.00 0.00 45 1016.0
20260506190006 55 23 0.0 10.4 0.00 0.00 0.00 43 1016.0
20260506184505 55 0 0.0 10.4 0.00 0.00 0.00 43 1016.0
20260506183005 56 0 2.6 10.4 0.00 0.00 0.00 43 1016.0
20260506181505 56 270 0.0 10.4 0.00 0.00 0.00 43 1015.0
20260506180006 56 270 0.0 10.4 0.00 0.00 0.00 43 1015.0
20260506174505 56 270 0.0 10.4 0.00 0.00 0.00 43 1016.0
20260506173005 57 270 0.9 10.4 0.00 0.00 0.00 42 1016.0
20260506171505 58 203 2.6 10.4 0.00 0.00 0.00 42 1014.0
20260506170005 60 248 2.6 4.3 0.00 0.00 0.00 42 1014.0
20260506164505 63 270 0.9 10.4 0.00 0.00 0.00 42 1013.0
20260506163005 65 315 0.9 10.4 0.00 0.00 0.00 42 1013.0
20260506161505 66 315 2.6 10.4 0.00 0.00 0.00 41 1013.0
20260506160005 66 293 0.0 10.4 0.00 0.00 0.00 41 1013.0
20260506154505 67 315 0.0 10.4 0.00 0.00 0.00 41 1013.0
20260506153005 67 315 0.0 10.4 0.00 0.00 0.00 42 1013.0
20260506151505 67 338 0.0 10.4 0.00 0.00 0.00 42 1014.0
20260506150005 67 315 0.0 10.4 0.00 0.00 0.00 42 1014.0
20260506144505 67 293 0.0 10.4 0.00 0.00 0.00 42 1014.0
20260506143005 67 23 0.0 10.4 0.00 0.00 0.00 42 1014.0
20260506141505 67 0 0.0 10.4 0.00 0.00 0.00 42 1014.0
20260506140005 66 45 0.0 10.4 0.00 0.00 0.00 42 1015.0
20260506134505 67 23 0.0 10.4 0.00 0.00 0.00 42 1015.0
20260506133005 66 180 0.0 10.4 0.00 0.00 0.00 42 1015.0
20260506131505 66 158 0.9 10.4 0.00 0.00 0.00 42 1015.0
20260506130005 66 180 0.0 10.4 0.00 0.00 0.00 42 1015.0
20260506124505 66 135 0.9 10.4 0.00 0.00 0.00 43 1015.0
20260506123005 66 113 0.9 10.4 0.00 0.00 0.00 43 1015.0
20260506121505 66 158 2.6 10.4 0.00 0.00 0.00 43 1016.0
20260506120005 67 135 1.7 10.4 0.00 0.00 0.00 43 1016.0
20260506114505 66 113 2.6 10.4 0.00 0.00 0.00 43 1016.0
20260506113005 66 113 0.0 10.4 0.00 0.00 0.00 43 1016.0
20260506111505 67 203 0.0 10.4 0.00 0.00 0.00 43 1016.0
20260506110005 65 158 3.5 10.4 0.00 0.00 0.00 44 1016.0
20260506104505 66 158 0.0 10.4 0.00 0.00 0.00 44 1017.0
20260506103005 66 180 2.6 10.4 0.00 0.00 0.00 44 1017.0
20260506101505 66 248 0.0 10.4 0.00 0.00 0.00 44 1017.0
20260506100005 66 158 0.9 10.4 0.00 0.00 0.00 44 1017.0
20260506094505 66 203 0.0 10.4 0.00 0.00 0.00 44 1017.0
20260506093005 64 135 0.0 10.4 0.00 0.00 0.00 44 1017.0
20260506091505 64 45 0.0 10.4 0.00 0.00 0.00 44 1017.0
20260506090005 64 135 0.0 10.4 0.00 0.00 0.00 44 1017.0
20260506084505 60 158 0.0 10.4 0.00 0.00 0.00 44 1017.0
20260506083005 59 158 1.7 10.4 0.00 0.00 0.00 44 1017.0
20260506081505 61 135 1.7 10.4 0.00 0.00 0.00 44 1017.0
20260506073005 58 158 0.0 10.4 0.00 0.00 0.00 45 1017.0
20260506071505 56 180 0.0 10.4 0.00 0.00 0.00 45 1017.0